Time,TemperatureF,DewpointF,PressureIn,WindDirection,WindDirectionDegrees,WindSpeedMPH,WindSpeedGustMPH,Humidity,HourlyPrecipIn,Conditions,Clouds,dailyrainin,SoftwareType,DateUTC
2013-10-01 00:07:00,61.7,47.7,30.03,North,-999,0.0,0.0,60,0.00,,,-99.99,FreeWX 2.04,2013-10-01 04:07:00,
2013-10-01 00:17:00,61.7,47.7,30.03,North,-999,0.0,0.0,60,0.00,,,-99.99,FreeWX 2.04,2013-10-01 04:17:00,
2013-10-01 00:27:00,61.7,48.0,30.03,North,-999,0.0,0.0,61,0.00,,,-99.99,FreeWX 2.04,2013-10-01 04:27:00,
2013-10-01 00:37:00,61.5,48.0,30.03,North,-999,0.0,0.0,61,0.00,,,-99.99,FreeWX 2.04,2013-10-01 04:37:00,
2013-10-01 00:47:00,61.3,47.8,30.03,North,-999,0.0,0.0,61,0.00,,,-99.99,FreeWX 2.04,2013-10-01 04:47:00,
2013-10-01 00:57:00,61.5,48.4,30.03,North,-999,0.0,0.0,62,0.00,,,-99.99,FreeWX 2.04,2013-10-01 04:57:00,
2013-10-01 01:07:00,61.5,48.4,30.03,North,-999,0.0,0.0,62,0.00,,,-99.99,FreeWX 2.04,2013-10-01 05:07:00,
2013-10-01 01:17:00,61.5,48.7,30.03,North,-999,0.0,0.0,63,0.00,,,-99.99,FreeWX 2.04,2013-10-01 05:17:00,
2013-10-01 01:27:00,61.5,48.4,30.03,North,-999,0.0,0.0,62,0.00,,,-99.99,FreeWX 2.04,2013-10-01 05:27:00,
2013-10-01 01:37:00,61.5,48.7,30.03,North,-999,0.0,0.0,63,0.00,,,-99.99,FreeWX 2.04,2013-10-01 05:37:00,
2013-10-01 01:47:00,61.5,48.7,30.03,North,-999,0.0,0.0,63,0.00,,,-99.99,FreeWX 2.04,2013-10-01 05:47:00,
2013-10-01 01:57:00,61.7,48.9,30.03,North,-999,0.0,0.0,63,0.00,,,-99.99,FreeWX 2.04,2013-10-01 05:57:00,
2013-10-01 02:07:00,61.5,48.7,30.03,North,-999,0.0,0.0,63,0.00,,,-99.99,FreeWX 2.04,2013-10-01 06:07:00,
2013-10-01 02:17:00,61.5,48.7,30.03,North,-999,0.0,0.0,63,0.00,,,-99.99,FreeWX 2.04,2013-10-01 06:17:00,
2013-10-01 02:27:00,61.3,48.6,30.03,North,-999,0.0,0.0,63,0.00,,,-99.99,FreeWX 2.04,2013-10-01 06:27:00,
2013-10-01 02:37:00,61.5,49.3,30.03,North,-999,0.0,0.0,64,0.00,,,-99.99,FreeWX 2.04,2013-10-01 06:37:00,
2013-10-01 02:47:00,61.5,49.3,30.03,North,-999,0.0,0.0,64,0.00,,,-99.99,FreeWX 2.04,2013-10-01 06:47:00,
2013-10-01 02:57:00,61.5,49.6,30.03,North,-999,0.0,0.0,65,0.00,,,-99.99,FreeWX 2.04,2013-10-01 06:57:00,
2013-10-01 03:07:00,61.7,50.2,30.03,North,-999,0.0,0.0,66,0.00,,,-99.99,FreeWX 2.04,2013-10-01 07:07:00,
2013-10-01 03:17:00,61.5,50.0,30.03,North,-999,0.0,0.0,66,0.00,,,-99.99,FreeWX 2.04,2013-10-01 07:17:00,
2013-10-01 03:27:00,61.3,49.8,30.03,North,-999,0.0,0.0,66,0.00,,,-99.99,FreeWX 2.04,2013-10-01 07:27:00,
2013-10-01 03:37:00,61.3,49.8,30.03,North,-999,0.0,0.0,66,0.00,,,-99.99,FreeWX 2.04,2013-10-01 07:37:00,
2013-10-01 03:47:00,61.2,49.6,30.03,North,-999,0.0,0.0,66,0.00,,,-99.99,FreeWX 2.04,2013-10-01 07:47:00,
2013-10-01 03:57:00,61.0,49.5,30.03,North,-999,0.0,0.0,66,0.00,,,-99.99,FreeWX 2.04,2013-10-01 07:57:00,
2013-10-01 04:07:00,60.8,49.3,30.03,North,-999,0.0,0.0,66,0.00,,,-99.99,FreeWX 2.04,2013-10-01 08:07:00,
2013-10-01 04:17:00,60.6,49.3,30.03,North,-999,0.0,0.0,66,0.00,,,-99.99,FreeWX 2.04,2013-10-01 08:17:00,
2013-10-01 04:27:00,60.4,49.1,30.03,North,-999,0.0,0.0,66,0.00,,,-99.99,FreeWX 2.04,2013-10-01 08:27:00,
2013-10-01 04:37:00,60.3,48.9,30.03,North,-999,0.0,0.0,66,0.00,,,-99.99,FreeWX 2.04,2013-10-01 08:37:00,
2013-10-01 04:47:00,60.1,48.7,30.03,North,-999,0.0,0.0,66,0.00,,,-99.99,FreeWX 2.04,2013-10-01 08:47:00,
2013-10-01 04:57:00,59.9,48.6,30.06,North,-999,0.0,0.0,66,0.00,,,-99.99,FreeWX 2.04,2013-10-01 08:57:00,
2013-10-01 05:07:00,59.7,48.7,30.06,North,-999,0.0,0.0,67,0.00,,,-99.99,FreeWX 2.04,2013-10-01 09:07:00,
2013-10-01 05:17:00,59.7,48.7,30.06,North,-999,0.0,0.0,67,0.00,,,-99.99,FreeWX 2.04,2013-10-01 09:17:00,
2013-10-01 05:27:00,59.5,48.6,30.06,North,-999,0.0,0.0,67,0.00,,,-99.99,FreeWX 2.04,2013-10-01 09:27:00,
2013-10-01 05:37:00,59.5,48.6,30.06,North,-999,0.0,0.0,67,0.00,,,-99.99,FreeWX 2.04,2013-10-01 09:37:00,
2013-10-01 05:47:00,59.5,48.6,30.06,North,-999,0.0,0.0,67,0.00,,,-99.99,FreeWX 2.04,2013-10-01 09:47:00,
2013-10-01 05:57:00,59.5,48.6,30.06,North,-999,0.0,0.0,67,0.00,,,-99.99,FreeWX 2.04,2013-10-01 09:57:00,
2013-10-01 06:07:00,59.2,48.2,30.06,North,-999,0.0,0.0,67,0.00,,,-99.99,FreeWX 2.04,2013-10-01 10:07:00,
2013-10-01 06:17:00,59.2,48.2,30.06,North,-999,0.0,0.0,67,0.00,,,-99.99,FreeWX 2.04,2013-10-01 10:17:00,
2013-10-01 06:27:00,59.0,48.0,30.06,North,-999,0.0,0.0,67,0.00,,,-99.99,FreeWX 2.04,2013-10-01 10:27:00,
2013-10-01 06:37:00,59.0,48.4,30.06,North,-999,0.0,0.0,68,0.00,,,-99.99,FreeWX 2.04,2013-10-01 10:37:00,
2013-10-01 06:47:00,59.0,48.0,30.06,North,-999,0.0,0.0,67,0.00,,,-99.99,FreeWX 2.04,2013-10-01 10:47:00,
2013-10-01 06:57:00,58.6,47.7,30.09,North,-999,0.0,0.0,67,0.00,,,-99.99,FreeWX 2.04,2013-10-01 10:57:00,
2013-10-01 07:07:00,58.5,47.5,30.09,North,-999,0.0,0.0,67,0.00,,,-99.99,FreeWX 2.04,2013-10-01 11:07:00,
2013-10-01 07:17:00,58.5,47.5,30.09,North,-999,0.0,0.0,67,0.00,,,-99.99,FreeWX 2.04,2013-10-01 11:17:00,
2013-10-01 07:27:00,58.1,47.1,30.09,North,-999,0.0,0.0,67,0.00,,,-99.99,FreeWX 2.04,2013-10-01 11:27:00,
2013-10-01 07:37:00,58.1,47.7,30.09,North,-999,0.0,0.0,68,0.00,,,-99.99,FreeWX 2.04,2013-10-01 11:37:00,
2013-10-01 07:47:00,57.9,47.5,30.09,North,-999,0.0,0.0,68,0.00,,,-99.99,FreeWX 2.04,2013-10-01 11:47:00,
2013-10-01 07:58:00,58.1,47.7,30.09,North,-999,0.0,0.0,68,0.00,,,-99.99,FreeWX 2.04,2013-10-01 11:58:00,
2013-10-01 08:08:00,58.3,47.8,30.09,North,-999,0.0,0.0,68,0.00,,,-99.99,FreeWX 2.04,2013-10-01 12:08:00,
2013-10-01 08:18:00,58.3,47.8,30.09,North,-999,0.0,0.0,68,0.00,,,-99.99,FreeWX 2.04,2013-10-01 12:18:00,
2013-10-01 08:28:00,58.5,48.4,30.09,North,-999,0.0,0.0,69,0.00,,,-99.99,FreeWX 2.04,2013-10-01 12:28:00,
2013-10-01 08:38:00,58.8,48.7,30.09,North,-999,0.0,0.0,69,0.00,,,-99.99,FreeWX 2.04,2013-10-01 12:38:00,
2013-10-01 08:48:00,59.5,49.8,30.09,North,-999,0.0,0.0,70,0.00,,,-99.99,FreeWX 2.04,2013-10-01 12:48:00,
2013-10-01 08:58:00,60.3,50.4,30.12,North,-999,0.0,0.0,70,0.00,,,-99.99,FreeWX 2.04,2013-10-01 12:58:00,
2013-10-01 09:08:00,61.2,51.3,30.12,North,-999,0.0,0.0,70,0.00,,,-99.99,FreeWX 2.04,2013-10-01 13:08:00,
2013-10-01 09:18:00,62.4,52.9,30.12,North,-999,0.0,0.0,71,0.00,,,-99.99,FreeWX 2.04,2013-10-01 13:18:00,
2013-10-01 09:28:00,63.3,53.4,30.12,North,-999,0.0,0.0,70,0.00,,,-99.99,FreeWX 2.04,2013-10-01 13:28:00,
2013-10-01 09:38:00,64.6,54.1,30.12,North,-999,0.0,0.0,69,0.00,,,-99.99,FreeWX 2.04,2013-10-01 13:38:00,
2013-10-01 09:48:00,66.0,53.4,30.12,North,-999,0.0,0.0,64,0.00,,,-99.99,FreeWX 2.04,2013-10-01 13:48:00,
2013-10-01 09:58:00,66.9,48.7,30.12,North,-999,0.0,0.0,52,0.00,,,-99.99,FreeWX 2.04,2013-10-01 13:58:00,
2013-10-01 10:08:00,68.2,49.3,30.12,North,-999,0.0,0.0,51,0.00,,,-99.99,FreeWX 2.04,2013-10-01 14:08:00,
2013-10-01 10:18:00,69.3,47.7,30.12,North,-999,0.0,0.0,46,0.00,,,-99.99,FreeWX 2.04,2013-10-01 14:18:00,
2013-10-01 10:28:00,70.2,42.6,30.12,North,-999,0.0,0.0,37,0.00,,,-99.99,FreeWX 2.04,2013-10-01 14:28:00,
2013-10-01 10:38:00,71.2,43.7,30.12,North,-999,0.0,0.0,37,0.00,,,-99.99,FreeWX 2.04,2013-10-01 14:38:00,
2013-10-01 10:48:00,72.5,43.3,30.12,North,-999,0.0,0.0,35,0.00,,,-99.99,FreeWX 2.04,2013-10-01 14:48:00,
2013-10-01 10:58:00,73.4,41.0,30.12,North,-999,0.0,0.0,31,0.00,,,-99.99,FreeWX 2.04,2013-10-01 14:58:00,
2013-10-01 11:08:00,74.1,42.4,30.12,North,-999,0.0,0.0,32,0.00,,,-99.99,FreeWX 2.04,2013-10-01 15:08:00,
2013-10-01 11:18:00,75.2,39.9,30.12,North,-999,0.0,0.0,28,0.00,,,-99.99,FreeWX 2.04,2013-10-01 15:18:00,
2013-10-01 11:28:00,76.3,36.9,30.12,North,-999,0.0,0.0,24,0.00,,,-99.99,FreeWX 2.04,2013-10-01 15:28:00,
2013-10-01 11:38:00,76.6,36.0,30.12,North,-999,0.0,0.0,23,0.00,,,-99.99,FreeWX 2.04,2013-10-01 15:38:00,
2013-10-01 11:48:00,77.4,36.7,30.12,North,-999,0.0,0.0,23,0.00,,,-99.99,FreeWX 2.04,2013-10-01 15:48:00,
2013-10-01 11:58:00,78.1,36.1,30.12,North,-999,0.0,0.0,22,0.00,,,-99.99,FreeWX 2.04,2013-10-01 15:58:00,
2013-10-01 12:08:00,77.9,34.9,30.12,North,-999,0.0,0.0,21,0.00,,,-99.99,FreeWX 2.04,2013-10-01 16:08:00,
2013-10-01 12:18:00,76.6,33.8,30.12,North,-999,0.0,4.0,21,0.00,,,-99.99,FreeWX 2.04,2013-10-01 16:18:00,
2013-10-01 12:28:00,77.5,35.6,30.12,North,-999,0.0,0.0,22,0.00,,,-99.99,FreeWX 2.04,2013-10-01 16:28:00,
2013-10-01 12:38:00,79.0,34.5,30.09,North,-999,0.0,0.0,20,0.00,,,-99.99,FreeWX 2.04,2013-10-01 16:38:00,
2013-10-01 12:48:00,79.0,34.5,30.09,North,-999,0.0,2.7,20,0.00,,,-99.99,FreeWX 2.04,2013-10-01 16:48:00,
2013-10-01 12:58:00,80.2,34.2,30.09,North,-999,0.0,2.7,19,0.00,,,-99.99,FreeWX 2.04,2013-10-01 16:58:00,
2013-10-01 13:08:00,80.2,31.5,30.09,North,-999,0.0,0.0,17,0.00,,,-99.99,FreeWX 2.04,2013-10-01 17:08:00,
2013-10-01 13:18:00,80.6,34.5,30.09,North,-999,0.0,2.7,19,0.00,,,-99.99,FreeWX 2.04,2013-10-01 17:18:00,
2013-10-01 13:28:00,81.9,31.3,30.09,North,-999,0.0,6.9,16,0.00,,,-99.99,FreeWX 2.04,2013-10-01 17:28:00,
2013-10-01 13:38:00,80.8,31.8,30.09,North,-999,0.0,3.6,17,0.00,,,-99.99,FreeWX 2.04,2013-10-01 17:38:00,
2013-10-01 13:48:00,80.8,34.7,30.09,North,-999,0.0,0.0,19,0.00,,,-99.99,FreeWX 2.04,2013-10-01 17:48:00,
2013-10-01 13:58:00,82.4,31.6,30.09,North,-999,0.0,0.0,16,0.00,,,-99.99,FreeWX 2.04,2013-10-01 17:58:00,
2013-10-01 14:08:00,83.8,32.9,30.06,North,-999,0.0,3.1,16,0.00,,,-99.99,FreeWX 2.04,2013-10-01 18:08:00,
2013-10-01 14:18:00,84.6,33.4,30.06,North,-999,0.0,3.6,16,0.00,,,-99.99,FreeWX 2.04,2013-10-01 18:18:00,
2013-10-01 14:28:00,84.0,32.9,30.06,North,-999,0.0,3.6,16,0.00,,,-99.99,FreeWX 2.04,2013-10-01 18:28:00,
2013-10-01 14:38:00,81.7,31.1,30.06,North,-999,0.0,4.0,16,0.00,,,-99.99,FreeWX 2.04,2013-10-01 18:38:00,
2013-10-01 14:48:00,81.0,36.1,30.06,North,-999,0.0,2.7,20,0.00,,,-99.99,FreeWX 2.04,2013-10-01 18:48:00,
2013-10-01 14:58:00,80.2,35.4,30.06,North,-999,0.0,0.0,20,0.00,,,-99.99,FreeWX 2.04,2013-10-01 18:58:00,
2013-10-01 15:08:00,81.3,32.4,30.06,North,-999,0.0,0.0,17,0.00,,,-99.99,FreeWX 2.04,2013-10-01 19:08:00,
2013-10-01 15:18:00,81.1,34.9,30.06,North,-999,0.0,0.0,19,0.00,,,-99.99,FreeWX 2.04,2013-10-01 19:18:00,
2013-10-01 15:28:00,78.6,34.2,30.06,North,-999,0.0,0.0,20,0.00,,,-99.99,FreeWX 2.04,2013-10-01 19:28:00,
2013-10-01 15:38:00,77.7,35.8,30.06,North,-999,0.0,0.0,22,0.00,,,-99.99,FreeWX 2.04,2013-10-01 19:38:00,
2013-10-01 15:49:00,77.0,35.2,30.06,North,-999,0.0,0.0,22,0.00,,,-99.99,FreeWX 2.04,2013-10-01 19:49:00,
2013-10-01 15:59:00,77.5,36.9,30.06,North,-999,0.0,0.0,23,0.00,,,-99.99,FreeWX 2.04,2013-10-01 19:59:00,
2013-10-01 16:09:00,78.8,35.6,30.06,North,-999,0.0,0.0,21,0.00,,,-99.99,FreeWX 2.04,2013-10-01 20:09:00,
2013-10-01 16:19:00,78.6,35.4,30.06,North,-999,0.0,0.0,21,0.00,,,-99.99,FreeWX 2.04,2013-10-01 20:19:00,
2013-10-01 16:29:00,77.5,34.5,30.06,North,-999,0.0,0.0,21,0.00,,,-99.99,FreeWX 2.04,2013-10-01 20:29:00,
2013-10-01 16:39:00,76.8,38.3,30.06,North,-999,0.0,0.0,25,0.00,,,-99.99,FreeWX 2.04,2013-10-01 20:39:00,
2013-10-01 16:49:00,76.1,37.8,30.06,North,-999,0.0,0.0,25,0.00,,,-99.99,FreeWX 2.04,2013-10-01 20:49:00,
2013-10-01 16:59:00,76.1,34.5,30.06,North,-999,0.0,2.7,22,0.00,,,-99.99,FreeWX 2.04,2013-10-01 20:59:00,
2013-10-01 17:09:00,75.7,37.4,30.06,North,-999,0.0,0.0,25,0.00,,,-99.99,FreeWX 2.04,2013-10-01 21:09:00,
2013-10-01 17:19:00,75.6,36.1,30.06,North,-999,0.0,0.0,24,0.00,,,-99.99,FreeWX 2.04,2013-10-01 21:19:00,
2013-10-01 17:29:00,75.2,34.9,30.06,North,-999,0.0,2.7,23,0.00,,,-99.99,FreeWX 2.04,2013-10-01 21:29:00,
2013-10-01 17:39:00,74.7,37.4,30.06,North,-999,0.0,0.0,26,0.00,,,-99.99,FreeWX 2.04,2013-10-01 21:39:00,
2013-10-01 17:49:00,74.1,38.8,30.06,North,-999,0.0,0.0,28,0.00,,,-99.99,FreeWX 2.04,2013-10-01 21:49:00,
2013-10-01 17:59:00,73.6,41.0,30.06,North,-999,0.0,0.0,31,0.00,,,-99.99,FreeWX 2.04,2013-10-01 21:59:00,
2013-10-01 18:09:00,72.9,41.2,30.06,North,-999,0.0,0.0,32,0.00,,,-99.99,FreeWX 2.04,2013-10-01 22:09:00,
2013-10-01 18:19:00,72.3,42.4,30.06,North,-999,0.0,0.0,34,0.00,,,-99.99,FreeWX 2.04,2013-10-01 22:19:00,
2013-10-01 18:29:00,72.1,42.3,30.06,North,-999,0.0,0.0,34,0.00,,,-99.99,FreeWX 2.04,2013-10-01 22:29:00,
2013-10-01 18:39:00,71.8,42.6,30.06,North,-999,0.0,0.0,35,0.00,,,-99.99,FreeWX 2.04,2013-10-01 22:39:00,
2013-10-01 18:49:00,71.1,44.2,30.06,North,-999,0.0,0.0,38,0.00,,,-99.99,FreeWX 2.04,2013-10-01 22:49:00,
2013-10-01 18:59:00,70.5,45.0,30.03,North,-999,0.0,0.0,40,0.00,,,-99.99,FreeWX 2.04,2013-10-01 22:59:00,
2013-10-01 19:09:00,69.6,45.5,30.06,North,-999,0.0,0.0,42,0.00,,,-99.99,FreeWX 2.04,2013-10-01 23:09:00,
2013-10-01 19:19:00,69.1,45.7,30.06,North,-999,0.0,0.0,43,0.00,,,-99.99,FreeWX 2.04,2013-10-01 23:19:00,
2013-10-01 19:29:00,68.7,45.9,30.06,North,-999,0.0,0.0,44,0.00,,,-99.99,FreeWX 2.04,2013-10-01 23:29:00,
2013-10-01 19:39:00,68.2,45.5,30.06,North,-999,0.0,0.0,44,0.00,,,-99.99,FreeWX 2.04,2013-10-01 23:39:00,
2013-10-01 19:49:00,67.6,45.0,30.06,North,-999,0.0,0.0,44,0.00,,,-99.99,FreeWX 2.04,2013-10-01 23:49:00,
2013-10-01 19:59:00,67.3,45.1,30.06,North,-999,0.0,0.0,45,0.00,,,-99.99,FreeWX 2.04,2013-10-01 23:59:00,
2013-10-01 20:09:00,66.7,45.9,30.06,North,-999,0.0,0.0,47,0.00,,,-99.99,FreeWX 2.04,2013-10-02 00:09:00,
2013-10-01 20:19:00,66.4,45.5,30.06,North,-999,0.0,0.0,47,0.00,,,-99.99,FreeWX 2.04,2013-10-02 00:19:00,
2013-10-01 20:29:00,66.0,45.7,30.06,North,-999,0.0,0.0,48,0.00,,,-99.99,FreeWX 2.04,2013-10-02 00:29:00,
2013-10-01 20:39:00,65.7,46.0,30.06,North,-999,0.0,0.0,49,0.00,,,-99.99,FreeWX 2.04,2013-10-02 00:39:00,
2013-10-01 20:49:00,65.3,46.8,30.06,North,-999,0.0,0.0,51,0.00,,,-99.99,FreeWX 2.04,2013-10-02 00:49:00,
2013-10-01 20:59:00,64.9,46.4,30.06,North,-999,0.0,0.0,51,0.00,,,-99.99,FreeWX 2.04,2013-10-02 00:59:00,
2013-10-01 21:09:00,64.6,46.0,30.06,North,-999,0.0,0.0,51,0.00,,,-99.99,FreeWX 2.04,2013-10-02 01:09:00,
2013-10-01 21:19:00,64.2,45.7,30.06,North,-999,0.0,0.0,51,0.00,,,-99.99,FreeWX 2.04,2013-10-02 01:19:00,
2013-10-01 21:29:00,64.0,46.6,30.06,North,-999,0.0,0.0,53,0.00,,,-99.99,FreeWX 2.04,2013-10-02 01:29:00,
2013-10-01 21:39:00,63.7,46.8,30.06,North,-999,0.0,0.0,54,0.00,,,-99.99,FreeWX 2.04,2013-10-02 01:39:00,
2013-10-01 21:49:00,63.5,47.1,30.06,North,-999,0.0,0.0,55,0.00,,,-99.99,FreeWX 2.04,2013-10-02 01:49:00,
2013-10-01 21:59:00,63.1,46.2,30.06,North,-999,0.0,0.0,54,0.00,,,-99.99,FreeWX 2.04,2013-10-02 01:59:00,
2013-10-01 22:09:00,63.0,46.6,30.09,North,-999,0.0,0.0,55,0.00,,,-99.99,FreeWX 2.04,2013-10-02 02:09:00,
2013-10-01 22:19:00,62.8,46.8,30.09,North,-999,0.0,0.0,56,0.00,,,-99.99,FreeWX 2.04,2013-10-02 02:19:00,
2013-10-01 22:29:00,62.6,46.2,30.09,North,-999,0.0,0.0,55,0.00,,,-99.99,FreeWX 2.04,2013-10-02 02:29:00,
2013-10-01 22:39:00,62.4,46.6,30.09,North,-999,0.0,0.0,56,0.00,,,-99.99,FreeWX 2.04,2013-10-02 02:39:00,
2013-10-01 22:49:00,62.2,46.8,30.09,North,-999,0.0,0.0,57,0.00,,,-99.99,FreeWX 2.04,2013-10-02 02:49:00,
2013-10-01 22:59:00,61.9,46.0,30.09,North,-999,0.0,0.0,56,0.00,,,-99.99,FreeWX 2.04,2013-10-02 02:59:00,
2013-10-01 23:09:00,61.7,45.9,30.09,North,-999,0.0,0.0,56,0.00,,,-99.99,FreeWX 2.04,2013-10-02 03:09:00,
2013-10-01 23:19:00,61.5,46.2,30.09,North,-999,0.0,0.0,57,0.00,,,-99.99,FreeWX 2.04,2013-10-02 03:19:00,
2013-10-01 23:29:00,61.3,46.0,30.09,North,-999,0.0,0.0,57,0.00,,,-99.99,FreeWX 2.04,2013-10-02 03:29:00,
2013-10-01 23:39:00,61.2,45.9,30.09,North,-999,0.0,0.0,57,0.00,,,-99.99,FreeWX 2.04,2013-10-02 03:39:00,
2013-10-01 23:49:00,61.0,46.0,30.09,North,-999,0.0,0.0,58,0.00,,,-99.99,FreeWX 2.04,2013-10-02 03:49:00,
2013-10-01 23:59:00,61.0,46.0,30.09,North,-999,0.0,0.0,58,0.00,,,-99.99,FreeWX 2.04,2013-10-02 03:59:00,